Regional Weather Roundup
Issued by NWS Jackson, KY

Home | Current Version | Previous Version | Text Only | Print | Product List | Glossary Off
Versions: 1 2 3 4 5 6 7 8 9 10 11 12 13 14 15 16 17 18 19 20 21 22 23 24 25 26 27 28 29 30 31 32 33 34 35 36 37 38 39 40 41 42 43 44 45 46 47 48 49 50

000
ASUS43 KJKL 290010
RWRJKL

EAST KENTUCKY HOURLY WEATHER ROUNDUP
NATIONAL WEATHER SERVICE JACKSON KY
800 PM EDT SUN MAY 28 2017

NOTE: "FAIR" INDICATES FEW OR NO CLOUDS BELOW 12,000 FEET WITH
NO SIGNIFICANT WEATHER AND/OR OBSTRUCTIONS TO VISIBILITY.

* THESE REPORTS ARE NOT UNDER NWS QUALITY CONTROL AND MAY NOT
  REPORT WEATHER SUCH AS PRECIPITATION AND FOG.

KYZ079-080-083-085-087-088-110-112-115-119-120-290100
...EASTERN KENTUCKY...

CITY           SKY/WX    TMP DP  RH WIND       PRES   REMARKS
JACKSON        LGT RAIN  70  61  73 CALM      29.88S
6HR MIN TEMP:  69; 6HR MAX TEMP:  75; 6HR PCP: TRACE;

LONDON         CLEAR     73  59  61 SW8       29.89F
6HR MIN TEMP:  72; 6HR MAX TEMP:  75;

SOMERSET*      CLOUDY    72  61  68 SW5       29.90S
MONTICELLO*    MOCLDY    73  62  68 W14       29.92R
6HR MIN TEMP:  72; 6HR MAX TEMP:  77;

WILLIAMSBURG*  CLEAR     72  63  73 W5        29.91R
MIDDLESBORO*   PTCLDY    75  61  62 CALM      29.91S
6HR MIN TEMP:  74; 6HR MAX TEMP:  78;

HARLAN APT*    CLOUDY    72  59  64 CALM      29.92S
PIKE CO APT*   MOCLDY    71  63  76 SW5       29.88R
BIG SANDY APT* CLOUDY    73  62  69 W9        29.86S
6HR MIN TEMP:  70; 6HR MAX TEMP:  75;

MOREHEAD APT*  CLOUDY    70  61  73 SW9G20    29.86S
ASHLAND*       CLOUDY    73  66  78 SW3       29.79S THUNDER
$$

KYZ035-036-041-042-044-050-067-078-099-290100
...CENTRAL KENTUCKY...

CITY           SKY/WX    TMP DP  RH WIND       PRES   REMARKS
MT STERLING*   CLOUDY    70  63  78 W8        29.87R
FLEMING/MASON* MOCLDY    71  62  74 SW12G21   29.83S
DANVILLE*      CLOUDY    70  63  78 W7        29.89R
LEXINGTON      PTCLDY    72  62  71 W12       29.86R
6HR MIN TEMP:  71; 6HR MAX TEMP:  77;

FRANKFORT      CLEAR     72  62  71 SW7       29.83R
6HR MIN TEMP:  68; 6HR MAX TEMP:  78; 6HR PCP:  0.01;

LOUISVILLE     CLOUDY    75  63  66 SW9       29.83R
6HR MIN TEMP:  71; 6HR MAX TEMP:  77; 6HR PCP: TRACE;

LEBANON*       MOCLDY    72  63  73 SW9       29.88R
GLASGOW*       CLOUDY    72  62  71 W6        29.90R
BOWLING GREEN  CLOUDY    75  65  70 W8        29.89R
6HR MIN TEMP:  75; 6HR MAX TEMP:  79;

$$

KYZ091>093-OHZ055-061-077-WVZ005-015-034-035-042-290100
...SOUTHERN OHIO/WEST VIRGINIA...

CITY           SKY/WX    TMP DP  RH WIND       PRES   REMARKS
COVINGTON      MOCLDY    70  63  78 SW6       29.81R
COLUMBUS       PTCLDY    74  60  61 W16G25    29.76R
DAYTON         MOCLDY    71  61  70 SW13      29.78R
WILMINGTON     PTCLDY    71  63  75 SW13      29.78S
HUNTINGTON     CLOUDY    72  63  73 SW6       29.82S
CHARLESTON     PTCLDY    71  62  73 SW6       29.83S
PINEVILLE*     MOCLDY    69  64  86 MISG      29.93S
BECKLEY        CLOUDY    67  57  70 W8        29.91R
BLUEFIELD      MOCLDY    63  60  90 W8        29.93S
LOGAN CO APT*    N/A     70  61  73 SW5       29.87S
$$

VAZ002-007-008-TNZ017-027-036-066-071-290100
...SOUTHWEST VIRGINIA/EAST TENNESSEE...

CITY           SKY/WX    TMP DP  RH WIND       PRES   REMARKS
WISE*          CLOUDY    68  59  73 W3        29.96R
JONESVILLE*      N/A     73  63  68 W5        29.93S
ABINGDON*      CLOUDY    71  63  76 W9        29.93S
BRISTOL        MOCLDY    72  63  73 SW7       29.91S
MORRISTOWN*    CLEAR     75  64  69 W8        29.91R
SEVIERVILLE*   CLEAR     75  61  60 SW6       29.90S
KNOXVILLE      MOCLDY    75  64  68 SW12      29.90S
LAFOLLETTE*    PTCLDY    75  63  64 CALM      29.93S
OAK RIDGE      CLEAR     77  63  61 VRB5      29.91S
CROSSVILLE     MOCLDY    70  60  70 W6        29.97R
NASHVILLE      CLOUDY    77  62  59 W6        29.91S
$$

...KEY TO REMARKS...
VSB - VISIBILITY IN MILES
WCI - WIND CHILL INDEX
HX  - HEAT INDEX

$$



USA.gov is the U.S. government's official web portal to all federal, state and local government web resources and services.